Abraham Lincoln Capital Airport Springfield US
ICAO: KSPI
IATA: SPI
Category: Large
Scheduled Services: Yes

Elevation: 598 ft
TransAlt. 18000 ft.

Airport Communications:
SPRINGFIELD APP/DEP:118.6
ATIS:127.65
CLNC DEL:121.7
CTAF:121.3
GND:121.9
ANG OPS:27.217
ST LOUIS RDO:122.25
SPRINGFIELD TWR:121.3
UNICOM:131.42

KSPI Zoom In..

If you have problems with the map follow the link
https://www.worldairports.se/pages/airport.php?
ICAO=KSPI

Runways:

(A) RW 04 length 8001 ft width 150 ft
ILS 109.50 / hdg 43

(B) RW 13 length 7400 ft width 150 ft
---- / hdg 128

(C) RW 18 length 5300 ft width 150 ft
---- / hdg 182

(D) RW 22 length 8001 ft width 150 ft
ILS 111.70 / hdg 223

(E) RW 31 length 7400 ft width 150 ft
ILS 110.15 / hdg 308

(F) RW 36 length 5300 ft width 150 ft
---- / hdg 2

Location; KSPI
Day. 25 / Time. 22.52 Zulu
* Altimeter: 30.00
* Temperature: 01° c. 33.8°f.
* Wind from: 260° Speed 15 kn.
Dewpoint: -03° c.
Visibility: 10 Statute Miles.
Clouds: Overcast 2300 ft.

KSPI 252252Z 26015KT 10SM OVC023 01/M03 A3000 RMK AO2 SLP165 T00061028


Wind From 260°
Speed 15 kn.

 
 
jpsmedia worldairports.se 2020   terms of use